Location: Madrid
(40.4000°N, 3.6830°W)
Time: 22:53:12
(UTC+02:00)

ISS - Pass Details

Date: 18 July 2017
Orbit: 400 x 408 km, 51.6° (Epoch: 24 July)

Event Time Altitude Azimuth Distance (km) Brightness Sun altitude
Rises 06:10:33 0° 313° (NW) 2,317 -0.1 -8.7°
Reaches altitude 10° 06:13:06 10° 333° (NNW) 1,458 -0.9 -8.3°
Maximum altitude 06:15:25 18° 19° (NNE) 1,082 -0.8 -7.9°
Drops below altitude 10° 06:17:44 10° 64° (ENE) 1,458 0.6 -7.6°
Sets 06:20:17 0° 84° (E) 2,318 1.2 -7.2°
